ON3FV Weather Reports


Display with metric or nautical units.
time (UTC)temp
F
wind
direction
speed
MPH
gust
MPH
rain 1hr
in
rain 24hr
in
rain mn
in
humidity
%
barometer
mb
20260503174317 61 0.0 0.0 0.00 0.00 0.00 86 1009.7
20260503173817 62 0.0 0.0 0.00 0.00 0.00 86 1009.7
20260503173315 62 0.0 0.0 0.00 0.00 0.00 86 1009.7
20260503172814 62 0.0 0.0 0.00 0.00 0.00 87 1009.7
20260503172314 62 0.0 0.0 0.00 0.00 0.00 87 1009.7
20260503171812 62 0.0 0.0 0.00 0.00 0.00 87 1009.6
20260503171312 62 0.0 0.0 0.00 0.00 0.00 87 1009.6
20260503170810 62 0.0 0.0 0.00 0.00 0.00 87 1009.6
20260503170310 62 0.0 0.0 0.00 0.00 0.00 87 1009.6
20260503150806 63 0.0 0.0 0.00 0.00 0.00 82 1009.6
20260503150305 63 0.0 0.0 0.00 0.00 0.00 82 1009.6
20260503140234 66 0.0 0.0 0.00 0.00 0.00 84 1009.3
20260502212922 60 0.0 0.0 0.00 0.00 0.00 86 1012.0
20260502211914 60 0.0 0.0 0.00 0.00 0.00 85 1012.0
20260502211423 60 0.0 0.0 0.00 0.00 0.00 85 1012.0
20260502210911 60 0.0 0.0 0.00 0.00 0.00 85 1011.9
20260502210441 60 0.0 0.0 0.00 0.00 0.00 85 1011.9
20260502205909 60 0.0 0.0 0.00 0.00 0.00 85 1011.9
20260502205409 60 0.0 0.0 0.00 0.00 0.00 85 1011.9
20260502204907 60 0.0 0.0 0.00 0.00 0.00 85 1012.0
20260502204406 60 0.0 0.0 0.00 0.00 0.00 85 1012.0
20260502203907 60 0.0 0.0 0.00 0.00 0.00 85 1012.0
20260502203404 60 0.0 0.0 0.00 0.00 0.00 85 1012.0
20260502202903 60 0.0 0.0 0.00 0.00 0.00 85 1012.0
20260502202403 60 0.0 0.0 0.00 0.00 0.00 85 1012.0
20260502201901 60 0.0 0.0 0.00 0.00 0.00 85 1012.0
20260502201401 60 0.0 0.0 0.00 0.00 0.00 85 1012.0
20260502200859 60 0.0 0.0 0.00 0.00 0.00 85 1012.0
20260502200419 60 0.0 0.0 0.00 0.00 0.00 85 1012.0
20260502195857 61 0.0 0.0 0.00 0.00 0.00 85 1012.0
20260502195417 61 0.0 0.0 0.00 0.00 0.00 85 1012.0
20260502194856 61 0.0 0.0 0.00 0.00 0.00 85 1012.0
20260502194357 61 0.0 0.0 0.00 0.00 0.00 85 1012.0
20260502193853 61 0.0 0.0 0.00 0.00 0.00 85 1012.1
20260502193353 61 0.0 0.0 0.00 0.00 0.00 85 1012.1
20260502192911 61 0.0 0.0 0.00 0.00 0.00 85 1012.1
20260502192352 61 0.0 0.0 0.00 0.00 0.00 85 1012.1
20260502191850 61 0.0 0.0 0.00 0.00 0.00 84 1012.2
20260502191349 61 0.0 0.0 0.00 0.00 0.00 84 1012.2
20260502190847 62 0.0 0.0 0.00 0.00 0.00 84 1012.2
20260502190346 62 0.0 0.0 0.00 0.00 0.00 84 1012.2
20260502185846 62 0.0 0.0 0.00 0.00 0.00 83 1012.4
20260502185345 62 0.0 0.0 0.00 0.00 0.00 83 1012.4
20260502184843 62 0.0 0.0 0.00 0.00 0.00 81 1012.4
20260502184343 62 0.0 0.0 0.00 0.00 0.00 81 1012.4
20260502183902 63 0.0 0.0 0.00 0.00 0.00 79 1012.6
20260502183340 63 0.0 0.0 0.00 0.00 0.00 79 1012.6
20260502182840 64 0.0 0.0 0.00 0.00 0.00 77 1012.8
20260502182339 64 0.0 0.0 0.00 0.00 0.00 77 1012.8
20260502181838 65 0.0 0.0 0.00 0.00 0.00 75 1013.1
20260502181337 65 0.0 0.0 0.00 0.00 0.00 75 1013.1
20260502180835 67 0.0 0.0 0.00 0.00 0.00 72 1013.4
20260502180335 67 0.0 0.0 0.00 0.00 0.00 72 1013.4